Regional Weather Roundup
Issued by NWS Grand Forks, ND

Home | Current Version | Previous Version | Text Only | Print | Product List | Glossary Off
Versions: 1 2 3 4 5 6 7 8 9 10 11 12 13 14 15 16 17 18 19 20 21 22 23 24 25 26 27 28 29 30 31 32 33 34 35 36 37 38 39 40 41 42 43 44 45 46 47 48 49 50

000
ASUS43 KFGF 240610
RWRFGF
NATIONAL WEATHER SERVICE EASTERN NORTH DAKOTA/GRAND FORKS ND
100 AM CDT SUN MAY 24 2015

 **SATELLITE DATA USED TO AUGMENT SKY COVER AT AUTOMATED STATIONS**
 *****  WEATHER ACROSS EASTERN NORTH DAKOTA  *****

CITY           SKY/WX    TMP DP  RH WIND       PRES   REMARKS
GRAND FORKS    MOCLDY    51  45  79 CALM      30.09S
6HR MIN TEMP:  50; 6HR MAX TEMP:  74;

GRAND FRKS AFB PTCLDY    53  46  75 SW3       30.10S
GRAND FRKS NWS   N/A     52 N/A N/A SW1         N/A
DEVILS LAKE    PTCLDY    57  46  67 CALM      30.10S
6HR MIN TEMP:  54; 6HR MAX TEMP:  72;

FARGO          PTCLDY    55  48  77 CALM      30.10S
WAHPETON ARPT  CLOUDY    61  45  55 SE6       30.11S
$$

 ***** WEATHER ACROSS CENTRAL AND WESTERN NORTH DAKOTA  *****

CITY           SKY/WX    TMP DP  RH WIND       PRES   REMARKS
BISMARCK       CLOUDY    55  51  86 SE5       30.11S
6HR MIN TEMP:  54; 6HR MAX TEMP:  63; 6HR PCP: TRACE;

MINOT          PTCLDY    56  46  69 SW8       30.09S
6HR MIN TEMP:  56; 6HR MAX TEMP:  73;

JAMESTOWN      MOCLDY    55  51  86 CALM      30.10S
6HR MIN TEMP:  55; 6HR MAX TEMP:  67;

MINOT AFB      PTCLDY    54  47  77 SW2       30.08S
GARRISON         N/A     56  47  71 CALM      30.11R
WILLISTON      PTCLDY    49  42  77 CALM      30.10R
6HR MIN TEMP:  46; 6HR MAX TEMP:  71;

DICKINSON      MOCLDY    48  45  89 SE7       30.09S
6HR MIN TEMP:  48; 6HR MAX TEMP:  58; 6HR PCP: TRACE;

HETTINGER      PTCLDY    47  45  93 NE7       30.10S
6HR MIN TEMP:  47; 6HR MAX TEMP:  62;

$$

 *****  OTHER AIRPORT OBSERVATIONS IN OUR AREA  *****

CITY           SKY/WX    TMP DP  RH WIND       PRES   REMARKS
WALHALLA         N/A     61  43  51 CALM      30.09R
GRAFTON AIRPOR FAIR      55  46  71 SW7       30.10S
VALLEY CITY AR FAIR      55  48  76 CALM      30.11R
CANDO          FAIR      54  45  71 SW5       30.11S
CAVALIER APRT  FAIR      61  46  59 SW7       30.09R
GWINNER        NOT AVBL
SHEYENNE NWR     N/A     54  48  80 CALM      29.95S
ROLLA          MOCLDY    55  45  67 SW12      30.12R
 ***** THE ABOVE OBSERVATIONS ARE NON NWS ARE NOT QUALITY
       CONTROLLED AND MAY MIS-REPORT RAIN FOR SNOW...
$$

  *****  WEATHER ACROSS NORTHERN MINNESOTA  *****

CITY           SKY/WX    TMP DP  RH WIND       PRES   REMARKS
FLAG ISLAND    CLEAR     63  43  48 SW15      30.05F
WARROAD        CLEAR     61  46  59 SW7       30.10S
ROSEAU         PTCLDY    57  46  67 SW7       30.10S
HALLOCK        PTCLDY    55  45  67 SW7       30.09S
THF RVR FALLS  PTCLDY    57  43  58 CALM      30.12S
6HR MIN TEMP:  57; 6HR MAX TEMP:  73;

BAUDETTE       CLEAR     54  42  64 S7        30.10S
6HR MIN TEMP:  53; 6HR MAX TEMP:  76;

WASKISH        CLEAR     57  46  67 CALM      30.12F
CROOKSTON      MOCLDY    55  45  67 SE5       30.11S
STEPHEN NDAWN    N/A     55  46  71 SW5         N/A
GREENBUSH NDAW   N/A     55  46  71 SW5         N/A
$$
  *****  WEATHER ACROSS CENTRAL AND WEST MINNESOTA  *****

CITY           SKY/WX    TMP DP  RH WIND       PRES   REMARKS
FOSSTON        MOCLDY    54  45  71 CALM      30.13S
BEMIDJI        PTCLDY    50  42  75 CALM      30.13F
PARK RAPIDS    MOCLDY    55  44  66 CALM      30.12F
6HR MIN TEMP:  52; 6HR MAX TEMP:  69;

ELBOW LAKE     CLOUDY    61  48  61 E8        30.11S
6HR MIN TEMP:  61; 6HR MAX TEMP:  67;

WADENA         CLOUDY    57  48  72 CALM      30.13S
DETROIT LAKES  PTCLDY    54  46  76 NE3       30.13F
MOORHEAD       PTCLDY    55  46  71 CALM      30.11S
FERGUS FALLS   CLOUDY    63  46  55 SE10      30.11F
MORRIS MN      MOCLDY    59  46  63 E9        30.08F
STAPLES        MOCLDY    57  46  67 CALM      30.14R
$$
  *****  WEATHER ELSEWHERE ACROSS MINNESOTA  *****

CITY           SKY/WX    TMP DP  RH WIND       PRES   REMARKS
DULUTH         CLEAR     55  42  61 CALM      30.14F
6HR MIN TEMP:  55; 6HR MAX TEMP:  71;

INTRNTL FALLS  CLEAR     54  42  64 SW6       30.11R
6HR MIN TEMP:  50; 6HR MAX TEMP:  77;

ELY            CLEAR     55  43  62 SW3       30.14F
CLOQUET        PTCLDY    50  43  76 CALM      30.14F
WHEATON        MOCLDY    57  46  67 E7        30.12R
BRAINERD       CLOUDY    57  48  72 CALM      30.14F
6HR MIN TEMP:  54; 6HR MAX TEMP:  66;

HIBBING        CLEAR     44  40  85 CALM      30.14F
6HR MIN TEMP:  44; 6HR MAX TEMP:  74;

ALEXANDRIA     MOCLDY    60  46  59 E9        30.13F
6HR MIN TEMP:  60; 6HR MAX TEMP:  65;

SAINT CLOUD    CLOUDY    59  47  64 E3        30.12F
6HR MIN TEMP:  59; 6HR MAX TEMP:  66; 6HR PCP: TRACE;

MINNEAPOLIS    CLOUDY    62  47  57 E8        30.11F
6HR MIN TEMP:  62; 6HR MAX TEMP:  68; 6HR PCP: TRACE;

$$

  *****  WEATHER ACROSS SOUTH DAKOTA  *****

CITY           SKY/WX    TMP DP  RH WIND       PRES   REMARKS
SIOUX FALLS    LGT RAIN  59  56  89 S5        30.06F
6HR MIN TEMP:  59; 6HR MAX TEMP:  65; 6HR PCP:  0.07;

BROOKINGS      CLOUDY    59  52  77 SE6       30.07S
WATERTOWN      MOCLDY    57  47  69 E9        30.05F
6HR MIN TEMP:  56; 6HR MAX TEMP:  66;

HURON          MOCLDY    55  52  89 E3        30.05S
6HR MIN TEMP:  55; 6HR MAX TEMP:  64;

SISSETON         N/A     58  48  69 E3        30.08S
ABERDEEN       PTCLDY    54  49  83 N6        30.07F
6HR MIN TEMP:  53; 6HR MAX TEMP:  67;

MITCHELL       LGT RAIN  58  56  93 CALM      30.06R
PIERRE         LGT RAIN  54  53  97 NE5       30.03R
6HR MIN TEMP:  54; 6HR MAX TEMP:  60; 6HR PCP:  0.01;

MOBRIDGE       CLOUDY    57  54  89 E9        30.06S
RAPID CITY     LGT RAIN  53  52  96 E8        30.01F FOG
6HR MIN TEMP:  53; 6HR MAX TEMP:  58; 6HR PCP:  0.05;

$$

  *****  SOME WEATHER IN NEARBY STATES *****

CITY           SKY/WX    TMP DP  RH WIND       PRES   REMARKS
GLASGOW MT     CLEAR     51  40  65 CALM      30.10S
6HR MIN TEMP:  51; 6HR MAX TEMP:  72;

GREAT FALLS MT CLOUDY    50  47  89 S3        30.11F
6HR MIN TEMP:  50; 6HR MAX TEMP:  54; 6HR PCP: TRACE;

CHEYENNE WY    CLOUDY    46  44  93 SW8       29.96S
6HR MIN TEMP:  45; 6HR MAX TEMP:  48;

SCOTTSBLUFF NE LGT RAIN  54  53  97 SE12      29.93R
6HR MIN TEMP:  54; 6HR MAX TEMP:  56; 6HR PCP:  0.10;

OMAHA NE       CLOUDY    63  60  90 S7        30.03R
6HR MIN TEMP:  62; 6HR MAX TEMP:  65; 6HR PCP:  0.02;

DES MOINES IA  CLOUDY    68  53  58 SE10      30.07S
6HR MIN TEMP:  68; 6HR MAX TEMP:  72;

DAVENPORT IA   CLOUDY    66  48  52 S7        30.15R
6HR MIN TEMP:  63; 6HR MAX TEMP:  78;

CHICAGO IL     PTCLDY    65  45  48 S5        30.19F
6HR MIN TEMP:  61; 6HR MAX TEMP:  79;

EAU CLAIRE WI  CLOUDY    58  46  64 NE5       30.14F
6HR MIN TEMP:  57; 6HR MAX TEMP:  73;

LA CROSSE WI   MOCLDY    61  50  67 CALM      30.12F
6HR MIN TEMP:  60; 6HR MAX TEMP:  77;

$$

  *****  SOME NATIONAL WEATHER *****

CITY           SKY/WX    TMP DP  RH WIND       PRES   REMARKS
LA GUARDIA NY  CLEAR     59  42  53 SW9       30.34F
6HR MIN TEMP:  59; 6HR MAX TEMP:  60;

RALEIGH NC     PTCLDY    63  53  70 S5        30.39R
6HR MIN TEMP:  59; 6HR MAX TEMP:  74;

ATLANTA GA     PTCLDY    68  49  50 SE7       30.30S
6HR MIN TEMP:  68; 6HR MAX TEMP:  78;

NEW ORLEANS LA PTCLDY    76  71  85 SE6       30.11S
6HR MIN TEMP:  76; 6HR MAX TEMP:  82;

OKLAHOMA CITY  LGT RAIN  60  59  96 S6        29.98F
6HR MIN TEMP:  60; 6HR MAX TEMP:  63; 6HR PCP:  1.49;

ALBUQUERQUE NM PTCLDY    59  29  31 NW9       29.99R
6HR MIN TEMP:  59; 6HR MAX TEMP:  70;

SALT LAKE CITY PTCLDY    52  45  77 CALM      29.96S
6HR MIN TEMP:  51; 6HR MAX TEMP:  59; 6HR PCP: TRACE;



USA.gov is the U.S. government's official web portal to all federal, state and local government web resources and services.